Regional Weather Roundup
Issued by NWS

Home | Current Version | Previous Version | Graphics & Text | Print | Product List | Glossary On
Versions: 1 2 3 4 5 6 7 8 9 10 11 12 13 14 15 16 17 18 19 20 21 22 23 24 25 26 27 28 29 30 31 32 33 34 35 36 37 38 39 40 41 42 43 44 45 46 47 48 49 50
000
ASUS45 KCYS 290810
RWRWY

WYOMING REGIONAL WEATHER ROUNDUP
NATIONAL WEATHER SERVICE CHEYENNE WY
200 AM MDT MON MAY 29 2017

NOTE:  "FAIR" INDICATES FEW OR NO CLOUDS BELOW 12,000 FEET
WITH NO SIGNIFICANT WEATHER AND/OR OBSTRUCTIONS TO VISIBILITY.

WYZ001-290900-
YELLOWSTONE NATIONAL PARK

CITY           SKY/WX    TMP DP  RH WIND       PRES   REMARKS
LK YELLOWSTONE   N/A     30  30 100 CALM      30.39S
W YELLOWSTONE  NOT AVBL

$$
WYZ002>013-054>058-071-098>099-290900-
NORTHERN WYOMING

CITY           SKY/WX    TMP DP  RH WIND       PRES   REMARKS
JACKSON        FAIR      39  36  87 CALM      30.32S
CODY           MOCLDY    53  42  66 SW5       30.28F
GREYBULL       FAIR      52  41  66 SE5       30.22S
WORLAND        CLOUDY    51  49  92 E5        30.24S
SHERIDAN       FAIR      49  40  71 NW7       30.21R
BUFFALO        FAIR      52  36  54 W12       30.24R
GILLETTE       FAIR      47  42  83 W10       30.19R
HULETT         FAIR      52  34  50 W3        30.18S
NEWCASTLE      FAIR      43  37  81 N9        30.18S

$$
WYZ014>020-022>026-101>103-290900-
CENTRAL WYOMING

CITY           SKY/WX    TMP DP  RH WIND       PRES   REMARKS
BIG PINEY      FAIR      36  30  79 NW6       30.33S WCI  31
PINEDALE       FAIR      36  32  87 E5        30.34R WCI  32
DUBOIS         FAIR      37  32  81 NW8       30.35S WCI  31
LANDER         FAIR      49  39  68 SW9       30.28F
RIVERTON       FAIR      47  42  83 W5        30.29F
CASPER         FAIR      45  43  93 SW7       30.26F
DOUGLAS        MOCLDY    47  42  83 NW10      30.24S

$$
WYZ021-027>030-104>119-290900-
SOUTHERN WYOMING

CITY           SKY/WX    TMP DP  RH WIND       PRES   REMARKS
EVANSTON       FAIR      50  28  42 S5        30.30F
KEMMERER         N/A     45  36  70 N7        30.33S
FORT BRIDGER   FAIR      44  32  63 SE7       30.33S
ROCK SPRINGS   FAIR      45  36  70 NE5       30.32S
DIXON            N/A     44  33  65 E5        30.31S
RAWLINS        CLOUDY    46  38  73 CALM      30.33S
SARATOGA       FAIR      37  37 100 SE6       30.33F WCI  33
LARAMIE        MOCLDY    39  36  89 W7        30.33S WCI  34
CHEYENNE       FAIR      46  38  73 NW7       30.28S
TORRINGTON     FAIR      49  41  74 W6        30.19R
PINE BLUFFS    FAIR      43  41  93 MISG      30.24F

$$



USA.gov is the U.S. government's official web portal to all federal, state and local government web resources and services.